Lakeview, OR

10:44 AM PST on February 10, 2016 (GMT -0800)
Lake County

Weather History for KLKV - August, 2013

Change the Weather History Date:

Friday, August 23, 2013

  Actual Average (KAAT) Record (KAAT)
Temperature  
Mean Temperature 58 °F 63 °F  
Max Temperature 80 °F 85 °F 100 °F (1917)
Min Temperature 37 °F 42 °F 26 °F (1960)
Degree Days  
Heating Degree Days 6 3  
Month to date heating degree days 39  
Since 1 June heating degree days 260  
Since 1 July heating degree days 80  
Cooling Degree Days 0 1  
Month to date cooling degree days 48  
Year to date cooling degree days 143  
Since 1 June cooling degree days 143  
Growing Degree Days 8 (Base 50)    
Moisture  
Dew Point 37 °F    
Average Humidity 54    
Maximum Humidity 93    
Minimum Humidity 18    
Precipitation  
Precipitation 0.00 in 0.01 in 0.87 in (1989)
Month to date precipitation 0.25  
Year to date precipitation 9.03  
Sea Level Pressure  
Sea Level Pressure 30.03 in    
Wind  
Wind Speed 4 mph (SW)    
Max Wind Speed 12 mph    
Max Gust Speed 16 mph    
Visibility 10 miles    
Events      
T = Trace of Precipitation, MM = Missing Value Source: NWS Daily Summary

Daily Weather History Graph

Daily Weather History Graph

Search for Another Location

Airport or City:

Trip Planner

Search our weather history database for the weather conditions in past years. The results will help you decide how hot, cold, wet, or windy it might be!

Date:

Astronomy

Aug. 23, 2013 Rise Set
Actual Time 6:17 AM PDT 7:49 PM PDT
Civil Twilight 5:48 AM PDT 8:18 PM PDT
Nautical Twilight 5:12 AM PDT 8:54 PM PDT
Astronomical Twilight 4:35 AM PDT 9:31 PM PDT
Moon 9:06 PM PDT (8/23) 9:23 AM PDT (8/23)
Length of Visible Light 14h 30m
Length of Day
13h 31m
Waning Gibbous, 91% of the Moon is Illuminated
Aug 23
Waning Gibbous
Aug 28
Last Quarter
Sep 5
New
Sep 12
First Quarter
Sep 19
Full

Hourly Weather History & Observations

Time (PDT) Temp. Windchill Dew Point Humidity Pressure Visibility Wind Dir Wind Speed Gust Speed Precip Events Conditions
12:15 AM 46.4 °F - 41.0 °F 81% 30.09 in 10.0 mi Calm Calm - N/A   Clear
12:35 AM 44.6 °F 42.2 °F 39.2 °F 81% 30.09 in 10.0 mi NNW 4.6 mph - N/A   Clear
12:55 AM 42.8 °F 39.3 °F 39.2 °F 87% 30.10 in 10.0 mi North 5.8 mph - N/A   Clear
1:15 AM 42.8 °F - 37.4 °F 81% 30.10 in 10.0 mi Calm Calm - N/A   Clear
1:35 AM 42.8 °F 41.1 °F 37.4 °F 81% 30.10 in 10.0 mi West 3.5 mph - N/A   Clear
1:55 AM 41.0 °F 38.0 °F 37.4 °F 87% 30.10 in 10.0 mi NW 4.6 mph - N/A   Clear
2:15 AM 39.2 °F - 35.6 °F 87% 30.10 in 10.0 mi Calm Calm - N/A   Clear
2:35 AM 39.2 °F - 35.6 °F 87% 30.09 in 10.0 mi Calm Calm - N/A   Clear
2:55 AM 39.2 °F 35.9 °F 35.6 °F 87% 30.09 in 10.0 mi NNW 4.6 mph - N/A   Clear
3:15 AM 37.4 °F 32.8 °F 35.6 °F 93% 30.09 in 10.0 mi North 5.8 mph - N/A   Clear
3:35 AM 37.4 °F 31.4 °F 33.8 °F 87% 30.09 in 10.0 mi NNW 8.1 mph - N/A   Clear
3:55 AM 37.4 °F 32.8 °F 35.6 °F 93% 30.08 in 10.0 mi North 5.8 mph - N/A   Clear
4:15 AM 37.4 °F 32.8 °F 35.6 °F 93% 30.08 in 10.0 mi NNW 5.8 mph - N/A   Clear
4:35 AM 37.4 °F 32.1 °F 35.6 °F 93% 30.08 in 10.0 mi NNW 6.9 mph - N/A   Clear
4:55 AM 37.4 °F 32.8 °F 35.6 °F 93% 30.08 in 10.0 mi NW 5.8 mph - N/A   Clear
5:15 AM 37.4 °F 32.1 °F 33.8 °F 87% 30.08 in 10.0 mi NW 6.9 mph - N/A   Clear
5:35 AM 37.4 °F 32.8 °F 33.8 °F 87% 30.08 in 10.0 mi NW 5.8 mph - N/A   Clear
5:55 AM 37.4 °F 31.4 °F 35.6 °F 93% 30.08 in 10.0 mi NNW 8.1 mph - N/A   Clear
6:15 AM 37.4 °F 31.4 °F 35.6 °F 93% 30.08 in 10.0 mi NNW 8.1 mph - N/A   Clear
6:35 AM 37.4 °F 34.9 °F 35.6 °F 93% 30.08 in 10.0 mi NW 3.5 mph - N/A   Clear
6:55 AM 37.4 °F 33.8 °F 35.6 °F 93% 30.08 in 10.0 mi NW 4.6 mph - N/A   Clear
7:15 AM 41.0 °F 39.0 °F 37.4 °F 87% 30.09 in 10.0 mi NW 3.5 mph - N/A   Clear
7:35 AM 44.6 °F 43.1 °F 41.0 °F 87% 30.09 in 10.0 mi NNW 3.5 mph - N/A   Clear
7:55 AM 46.4 °F - 42.8 °F 87% 30.09 in 10.0 mi Calm Calm - N/A   Clear
8:15 AM 50.0 °F - 42.8 °F 76% 30.09 in 10.0 mi Calm Calm - N/A   Clear
8:35 AM 55.4 °F - 44.6 °F 67% 30.09 in 10.0 mi Calm Calm - N/A   Clear
8:55 AM 59.0 °F - 44.6 °F 59% 30.09 in 10.0 mi Calm Calm - N/A   Clear
9:15 AM 60.8 °F - 44.6 °F 55% 30.09 in 10.0 mi Calm Calm - N/A   Clear
9:35 AM 60.8 °F - 44.6 °F 55% 30.08 in 10.0 mi ESE 3.5 mph - N/A   Clear
9:55 AM 64.4 °F - 44.6 °F 49% 30.08 in 10.0 mi Calm Calm - N/A   Clear
10:15 AM 64.4 °F - 44.6 °F 49% 30.08 in 10.0 mi SSE 4.6 mph - N/A   Clear
10:35 AM 64.4 °F - 44.6 °F 49% 30.07 in 10.0 mi SSE 3.5 mph - N/A   Clear
10:55 AM 69.8 °F - 42.8 °F 38% 30.07 in 10.0 mi SSE 4.6 mph - N/A   Clear
11:15 AM 71.6 °F - 41.0 °F 33% 30.07 in 10.0 mi South 3.5 mph - N/A   Clear
11:35 AM 69.8 °F - 39.2 °F 33% 30.06 in 10.0 mi Calm Calm - N/A   Clear
11:55 AM 73.4 °F - 41.0 °F 31% 30.06 in 10.0 mi South 4.6 mph - N/A   Clear
12:15 PM 73.4 °F - 39.2 °F 29% 30.05 in 10.0 mi SSE 3.5 mph - N/A   Clear
12:35 PM 73.4 °F - 39.2 °F 29% 30.05 in 10.0 mi SW 8.1 mph - N/A   Clear
12:55 PM 75.2 °F - 39.2 °F 27% 30.04 in 10.0 mi SSW 8.1 mph - N/A   Clear
1:15 PM 78.8 °F - 37.4 °F 23% 30.03 in 10.0 mi WSW 5.8 mph - N/A   Clear
1:35 PM 77.0 °F - 35.6 °F 22% 30.03 in 10.0 mi SSW 8.1 mph - N/A   Clear
1:55 PM 78.8 °F - 37.4 °F 23% 30.02 in 10.0 mi West 6.9 mph - N/A   Clear
2:15 PM 78.8 °F - 33.8 °F 20% 30.01 in 10.0 mi ESE 8.1 mph - N/A   Clear
2:35 PM 78.8 °F - 33.8 °F 20% 30.01 in 10.0 mi WNW 4.6 mph - N/A   Clear
2:55 PM 78.8 °F - 35.6 °F 21% 30.00 in 10.0 mi SSE 10.4 mph - N/A   Clear
3:15 PM 78.8 °F - 35.6 °F 21% 29.99 in 10.0 mi SSE 6.9 mph - N/A   Clear
3:35 PM 78.8 °F - 33.8 °F 20% 29.99 in 10.0 mi South 11.5 mph - N/A   Clear
3:55 PM 80.6 °F - 35.6 °F 20% 29.98 in 9.0 mi SSE 3.5 mph - N/A   Clear
4:15 PM 78.8 °F - 35.6 °F 21% 29.98 in 10.0 mi SSW 8.1 mph - N/A   Clear
4:35 PM 80.6 °F - 33.8 °F 18% 29.97 in 10.0 mi South 5.8 mph - N/A   Clear
4:55 PM 78.8 °F - 35.6 °F 21% 29.97 in 10.0 mi ESE 3.5 mph - N/A   Clear
5:15 PM 80.6 °F - 33.8 °F 18% 29.96 in 10.0 mi SW 8.1 mph - N/A   Clear
5:35 PM 80.6 °F - 33.8 °F 18% 29.96 in 10.0 mi SW 8.1 mph 16.1 mph N/A   Clear
5:55 PM 78.8 °F - 33.8 °F 20% 29.96 in 10.0 mi SE 4.6 mph - N/A   Clear
6:15 PM 78.8 °F - 33.8 °F 20% 29.95 in 10.0 mi South 5.8 mph - N/A   Clear
6:35 PM 75.2 °F - 32.0 °F 21% 29.94 in 10.0 mi South 8.1 mph - N/A   Clear
6:55 PM 75.2 °F - 33.8 °F 22% 29.94 in 10.0 mi SSE 4.6 mph - N/A   Clear
7:15 PM 73.4 °F - 35.6 °F 25% 29.94 in 10.0 mi SSE 4.6 mph - N/A   Clear
7:35 PM 69.8 °F - 37.4 °F 31% 29.94 in 10.0 mi SSE 4.6 mph - N/A   Clear
7:55 PM 66.2 °F - 35.6 °F 32% 29.94 in 10.0 mi SE 4.6 mph - N/A   Clear
8:15 PM 64.4 °F - 35.6 °F 34% 29.94 in 10.0 mi SE 4.6 mph - N/A   Clear
8:35 PM 60.8 °F - 35.6 °F 39% 29.95 in 10.0 mi Calm Calm - N/A   Clear
8:55 PM 60.8 °F - 33.8 °F 36% 29.95 in 10.0 mi ESE 4.6 mph - N/A   Clear
9:15 PM 57.2 °F - 33.8 °F 41% 29.95 in 10.0 mi SE 4.6 mph - N/A   Clear
9:35 PM 55.4 °F - 35.6 °F 47% 29.95 in 10.0 mi NNW 4.6 mph - N/A   Clear
9:55 PM 53.6 °F - 35.6 °F 51% 29.96 in 10.0 mi North 4.6 mph - N/A   Clear
10:15 PM 51.8 °F - 35.6 °F 54% 29.96 in 10.0 mi NW 4.6 mph - N/A   Clear
10:35 PM 51.8 °F - 39.2 °F 62% 29.97 in 10.0 mi Calm Calm - N/A   Clear
10:55 PM 51.8 °F - 37.4 °F 58% 29.96 in 10.0 mi East 5.8 mph - N/A   Clear
11:15 PM 48.2 °F - 37.4 °F 66% 29.96 in 10.0 mi Calm Calm - N/A   Clear
11:35 PM 50.0 °F - 35.6 °F 58% 29.98 in 10.0 mi North 8.1 mph - N/A   Clear
11:55 PM 51.8 °F - 35.6 °F 54% 29.97 in 10.0 mi East 5.8 mph - N/A   Clear